{"data":{"norad_id":39616,"epoch":"2026-05-25T03:23:33.091008Z","epoch_age_seconds":59258,"freshness":"FRESH","line1":"1 39616U 14011A   26145.14135522 -.00000255  00000+0  00000+0 0  9994","line2":"2 39616   0.0580 158.3839 0003229 288.9056 132.3329  1.00273015 44483","mean_motion":1.00273015,"eccentricity":0.0003229,"inclination_deg":0.058,"raan_deg":158.3839,"arg_perigee_deg":288.9056,"mean_anomaly_deg":132.3329,"bstar":0,"rev_number":4448,"period_min":1436.0792881315,"perigee_km":35772.635270454,"apogee_km":35799.865031676,"semimajor_km":42164.387151065,"source":"CELESTRAK","updated_at":"2026-05-25T13:38:13.949523Z"}}